Meteo Giornale » Osservazioni meteo Stati Uniti (USA) » Concord Buchanan Fld
ore: 22:53 - Osservazioni Meteo Concord Buchanan Fld
Lat. 37° 59' N Lon. 122° 3' W Alt. 7 metri s.l.m.
17 °C
Coperto
Temp. 24 Ore
14 °C
21 °C
Sud-Ovest
22.2 Km/h
Dew point 11 °C
Umidità 67 %
Visibilità 10 Km
Il sole sorge alle ore 06:37
Il sole tramonta alle ore 19:39
| Data e Ora | Cielo e Fenomeni | T °C | DP °C | Um. % | Pres. hPa | Vis. km | Vento km/h | |
|---|---|---|---|---|---|---|---|---|
| Oggi h: 22:53 | Coperto | 17 | 11 | 67 | 1013 | 10 | SO 22.2 | |
| Oggi h: 22:13 | Molto Nuvoloso | 17 | 11 | 67 | 1013 | 10 | SO 22.2 | |
| Oggi h: 21:53 | Nuvoloso | 17 | 11 | 67 | 1013 | 10 | SO 25.9 | |
| Oggi h: 20:53 | Coperto | 17 | 11 | 67 | 1013 | 10 | SO 25.9 | |
| Oggi h: 19:53 | Molto Nuvoloso | 17 | 11 | 67 | 1012 | 10 | SO 22.2 | |
| Oggi h: 18:53 | Coperto | 18 | 11 | 63 | 1012 | 10 | O/SO 22.2 | |
| Oggi h: 17:53 | Molto Nuvoloso | 18 | 12 | 67 | 1012 | 10 | S/SO 24 | |
| Oggi h: 16:53 | Molto Nuvoloso | 19 | 12 | 63 | 1012 | 10 | O/SO 25.9 | |
| Oggi h: 15:53 | Poco Nuvoloso | 20 | 12 | 59 | 1012 | 10 | O/SO 29.6 | |
| Oggi h: 14:53 | Poco Nuvoloso | 20 | 12 | 59 | 1013 | 10 | O 33.3 | |
| Oggi h: 13:53 | Sereno | 21 | 12 | 56 | 1013 | 10 | S/SO 29.6 | |
| Oggi h: 12:53 | Poco Nuvoloso | 21 | 12 | 56 | 1013 | 10 | S/SO 31.5 | |
| Oggi h: 11:53 | Sereno | 19 | 12 | 63 | 1014 | 10 | S 29.6 | |
| Oggi h: 11:14 | Poco Nuvoloso | 18 | 12 | 67 | 1014 | 10 | S/SO 31.5 | |
| Oggi h: 10:53 | Molto Nuvoloso | 18 | 12 | 67 | 1014 | 10 | S 33.3 | |
| Oggi h: 09:53 | Molto Nuvoloso | 17 | 12 | 72 | 1013 | 10 | S/SO 29.6 | |
| Oggi h: 08:53 | Molto Nuvoloso | 16 | 11 | 72 | 1013 | 10 | S/SO 27.8 | |
| Oggi h: 08:11 | Molto Nuvoloso | 15 | 11 | 76 | 1013 | 10 | S/SO 29.6 | |
| Oggi h: 07:53 | Nuvoloso | 15 | 11 | 76 | 1013 | 10 | S/SO 24 | |
| Oggi h: 06:53 | Nuvoloso | 15 | 11 | 76 | 1012 | 10 | S/SO 24 | |
| Oggi h: 05:53 | Sereno | 14 | 11 | 82 | 1012 | 10 | S/SO 22.2 | |
| Oggi h: 04:53 | Sereno | 15 | 11 | 76 | 1011 | 10 | S 22.2 | |
| Oggi h: 03:53 | Sereno | 15 | 12 | 82 | 1011 | 10 | S 22.2 | |
| Oggi h: 02:53 | Sereno | 15 | 12 | 82 | 1011 | 10 | S 18.5 | |
| Oggi h: 01:53 | Sereno | 16 | 12 | 77 | 1011 | 10 | S 22.2 | |
| Oggi h: 00:53 | Sereno | 16 | 12 | 77 | 1011 | 10 | S 27.8 | |
| Ieri h: 23:53 | Sereno | 16 | 12 | 77 | 1011 | 10 | S 22.2 | |



